Location: Corcelles
(46.1547°N, 4.7234°E)
Time: 21:09:38
(UTC+00:00)

Cosmos 1980 Rocket - Pass Details

Date: 14 July 2020
Orbit: 828 x 851 km, 71.0° (Epoch: 14 August)

Event Time Altitude Azimuth Distance (km) Brightness Sun altitude
Rises 03:24:08 0° 324° (NW) 3,427 5.4 -6.3°
Reaches altitude 10° 03:26:55 10° 313° (NW) 2,485 4.6 -6.0°
Maximum altitude 03:31:37 27° 257° (WSW) 1,567 3.1 -5.3°
Drops below altitude 10° 03:36:18 10° 201° (SSW) 2,463 4.1 -4.7°
Sets 03:39:04 0° 190° (S) 3,390 4.9 -4.3°
